Regional Weather Roundup
Issued by NWS

Home | Current Version | Previous Version | Graphics & Text | Print | Product List | Glossary On
Versions: 1 2 3 4 5 6 7 8 9 10 11 12 13 14 15 16 17 18 19 20 21 22 23 24 25 26 27 28 29 30 31 32 33 34 35 36 37 38 39 40 41 42 43 44 45 46 47 48 49 50
740
ASUS43 KIND 220509
RWRIN

WEATHER ROUNDUP FOR INDIANA
NATIONAL WEATHER SERVICE INDIANAPOLIS IN
100 AM EDT FRI SEP 22 2017

NOTE: "FAIR" INDICATES FEW OR NO CLOUDS BELOW 12,000 FEET WITH NO
SIGNIFICANT WEATHER AND/OR OBSTRUCTIONS TO VISIBILITY.

* - STATION DOES NOT REPORT WEATHER SUCH AS PRECIPITATION OR FOG.

+ - STATION NOT QUALITY CONTROLLED BY THE NATIONAL WEATHER SERVICE.
    USE DATA WITH CAUTION...ESPECIALLY DEWPOINT AND RELATIVE
    HUMIDITY OBSERVATIONS.

INZ001>003-010>013-019-020-220600-
NORTHWEST INDIANA

CITY           SKY/WX    TMP DP  RH WIND       PRES   REMARKS
GARY /AIRPORT/ CLEAR     77  70  79 SE5       30.04R
KNOX *+        CLEAR     70  68  94 E5        30.05R
LA PORTE +     CLEAR     70  68  95 CALM      30.07R
MICHIGAN CITY+ CLEAR     70  70 100 CALM      30.05S
MONTICELLO +   CLEAR     70  69  95 CALM      30.05S
RENSSELAER +   CLEAR     70  63  78 CALM      30.06R
VALPARAISO     CLEAR     73  70  90 CALM      30.05S

$$

LMZ046-743>745-220600-
SOUTHERN LAKE MICHIGAN

STATION/POSITION TIME  TEMP    WIND        PRES    WAVE
                       AIR SEA DIR/SP/G            HT
                 (UTC) (F)     (DEG/KT/KT) (MB)    (FT)
BURNS HARBOR     0502   80     180/  5/ 10 1017.3
MICHIGAN CITY    0440   78     130/  9/ 10   N/A
5NW MICH CITY    0500   74 71  160/  6/  8   N/A     0

$$

INZ004-005-014>016-021>024-220600-
NORTH CENTRAL INDIANA

CITY           SKY/WX    TMP DP  RH WIND       PRES   REMARKS
GOSHEN         CLEAR     72  67  84 CALM      30.07S
LOGANSPORT +   CLEAR     70  66  88 E3        30.07R
PERU/GRISSOM   CLEAR     72  69  90 CALM      30.06S
SOUTH BEND     CLEAR     75  72  90 E3        30.07R
WARSAW +       CLEAR     68  68 100 CALM      30.07S

$$

INZ006>009-017-018-025>027-220600-
NORTHEAST INDIANA

CITY           SKY/WX    TMP DP  RH WIND       PRES   REMARKS
AUBURN +       CLEAR     70  68  94 CALM      30.08S
FORT WAYNE     PTCLDY    69  67  93 CALM      30.08S
HUNTINGTON +   CLEAR     70  69  96 CALM      30.07S
KENDALLVILLE + CLEAR     70  68  92 CALM      30.09S

$$

INZ028-029-035-036-043>045-051>053-220600-
WEST CENTRAL INDIANA

CITY           SKY/WX    TMP DP  RH WIND       PRES   REMARKS
CRAWFORDSVL +  CLEAR     68  68 100 CALM      30.07S
GREENCASTLE +  CLEAR     70  66  88 CALM      30.08R
LAFAYETTE      CLEAR     71  69  93 CALM      30.05R
TERRE HAUTE    CLEAR     71  67  87 CALM      30.05S

$$

INZ030>032-037>040-046>048-054>057-064-065-220600-
CENTRAL INDIANA

CITY           SKY/WX    TMP DP  RH WIND       PRES   REMARKS
CP ATTERBURY + CLEAR     68  66  94 CALM      30.08R FOG
FISHERS *+     CLEAR     68  68 100 CALM      30.07S
FRANKFORT +    MOCLDY    70  68  94 CALM      30.08S
GREENWOOD *+   CLEAR     74  72  92 CALM      30.08R
INDIANAPOLIS   PTCLDY    76  68  76 CALM      30.07R
-EAGLE CREEK   CLEAR     73  70  90 NW3       30.06S
KOKOMO +       CLEAR     71  68  90 CALM      30.08R
MARION +       CLEAR     70  66  88 CALM      30.08S
MT COMFORT *+  CLEAR     68  66  94 CALM      30.08S
SHELBYVILLE    CLEAR     70  66  87 CALM      30.06S
ZIONSVILLE +   CLEAR     68  67  98 CALM      30.08S

$$

INZ033-034-041-042-049-050-058-059-220600-
EAST CENTRAL INDIANA

CITY           SKY/WX    TMP DP  RH WIND       PRES   REMARKS
MUNCIE         CLEAR     71  68  90 CALM      30.07S
RICHMOND +     PTCLDY    68  68 100 SE5       30.10S FOG

$$

INZ060-061-067>069-081>083-085>088-220600-
SOUTHWEST INDIANA

CITY           SKY/WX    TMP DP  RH WIND       PRES   REMARKS
EVANSVILLE     CLEAR     73  70  90 CALM      30.05S
WASHINGTON +   CLEAR     71  69  93 CALM      30.05S

$$

INZ062-063-066-070>080-084-089>092-220600-
SOUTH CENTRAL AND SOUTHEAST INDIANA

CITY           SKY/WX    TMP DP  RH WIND       PRES   REMARKS
BEDFORD +      CLEAR     72  68  88 CALM      30.07R
BLOOMINGTON    CLEAR     70  65  84 CALM      30.07S
MADISON *+       N/A     70  68  94 CALM      30.10R
NORTH VERNON + CLEAR     68  66  94 CALM      30.08S
SEYMOUR +      CLEAR     70  68  94 CALM      30.06S FOG

$$





USA.gov is the U.S. government's official web portal to all federal, state and local government web resources and services.